STARLINK-11242 [DTC] (60903 NORAD) Tracking and Keplerian Element Data

This shows tracking and keplerian element data for the satellite.

Feedback or suggestion? Click here.




ElementValue
Catalog60903
NameSTARLINK-11242 [DTC]
Epoch Orbit795
Epoch Day286.84783276
Epoch Year2024
RAAN140.3507
Inclination53.1579
Eccentricity0.000131
Argument of Perigee90.5882
Mean Anonmoly269.5289
Mean Motion15.76735084
Decay Rate3.144E-05
L11 60903U 24154A 24286.84783276 .00003144 00000+0 23197-4 0 9998
L22 60903 53.1579 140.3507 0001310 90.5882 269.5289 15.76735084 7955



Live tracking and technical data element details for STARLINK-11242 [DTC] (NORAD 60903). STARLINK-11242 [DTC] can be tracked NOW for your location showing map with azimuth and elevation plus other details from your city location.







IsCatalogInMostPopularTable: catalog: 60903, numindb: 9
Update: records affected: 1



GetName: 60903 STARLINK-11242 [DTC]

Hit Count: updated at: Fri, 06 Dec 2024 10:25:07 GMT